Location: Tierz
(42.1336°N, 0.3549°W)
Time: 12:00:29
(UTC+00:00)

CZ-4C R/B - Pass Details

Date: 29 October 2020
Orbit: 624 x 1378 km, 63.4° (Epoch: 29 November)

Event Time Altitude Azimuth Distance (km) Brightness Sun altitude
Rises 18:39:58 0° 327° (NNW) 3,701 6.0 -19.3°
Reaches altitude 10° 18:43:03 10° 342° (NNW) 2,881 5.2 -19.9°
Maximum altitude 18:48:27 23° 33° (NNE) 2,251 4.1 -20.9°
Enters shadow 18:49:39 22° 47° (NE) 2,329 4.1 -21.1°
